Istanbul, Turkey

2:51 PM +03 on June 26, 2017 (GMT +0300)
Ataturk

Weather History for LTBA - October, 2012

Change the Weather History Date:

Friday, October 19, 2012

  Actual Average Record
Temperature  
Mean Temperature 69 °F -  
Max Temperature 76 °F 60 °F 76 °F (2012)
Min Temperature 62 °F 50 °F 46 °F (2005)
Cooling Degree Days 4    
Growing Degree Days 19 (Base 50)    
Moisture  
Dew Point 52 °F    
Average Humidity 57    
Maximum Humidity 73    
Minimum Humidity 28    
Precipitation  
Precipitation 0.00 in - - ()
Sea Level Pressure  
Sea Level Pressure 30.19 in    
Wind  
Wind Speed 9 mph ()    
Max Wind Speed 17 mph    
Max Gust Speed 21 mph    
Visibility 6.1 miles    
Events      
Averages and records for this station are not official NWS values.
T = Trace of Precipitation, MM = Missing Value Source: Averaged Metar Reports

Daily Weather History Graph

Daily Weather History Graph

Search for Another Location

Airport or City:

Trip Planner

Search our weather history database for the weather conditions in past years. The results will help you decide how hot, cold, wet, or windy it might be!

Date:

Astronomy

Oct. 19, 2012 Rise Set
Actual Time 7:20 AM EEST 6:17 PM EEST
Civil Twilight 6:52 AM EEST 6:45 PM EEST
Nautical Twilight 6:20 AM EEST 7:17 PM EEST
Astronomical Twilight 5:49 AM EEST 7:49 PM EEST
Moon 11:46 AM EEST (10/19) 9:33 PM EEST (10/19)
Length of Visible Light 11h 52m
Length of Day
10h 57m
Waxing Crescent, 20% of the Moon is Illuminated
Oct 19
Waxing Crescent
Oct 22
First Quarter
Oct 29
Full
Nov 7
Last Quarter
Nov 14
New

Hourly Weather History & Observations

Time (EEST) Temp. Dew Point Humidity Pressure Visibility Wind Dir Wind Speed Gust Speed Precip Events Conditions
12:20 AM 66.2 °F 55.4 °F 68% 30.24 in - ENE 6.9 mph - N/A   Clear
12:50 AM 66.2 °F 55.4 °F 68% 30.21 in - NE 10.4 mph - N/A   Clear
1:20 AM 68.0 °F 57.2 °F 68% 30.21 in - ENE 8.1 mph - N/A   Clear
1:50 AM 66.2 °F 57.2 °F 73% 30.21 in - NE 8.1 mph 20.7 mph N/A   Clear
2:20 AM 66.2 °F 55.4 °F 68% 30.21 in - NE 9.2 mph - N/A   Clear
2:50 AM 66.2 °F 57.2 °F 73% 30.21 in - NE 9.2 mph - N/A   Clear
3:20 AM 66.2 °F 55.4 °F 68% 30.21 in - NE 8.1 mph - N/A   Clear
3:50 AM 66.2 °F 55.4 °F 68% 30.21 in - NE 6.9 mph - N/A   Clear
4:20 AM 64.4 °F 55.4 °F 73% 30.21 in - NE 9.2 mph - N/A   Clear
4:50 AM 64.4 °F 55.4 °F 73% 30.21 in - NNE 11.5 mph - N/A   Clear
5:20 AM 64.4 °F 55.4 °F 73% 30.21 in - NE 9.2 mph - N/A   Clear
5:50 AM 66.2 °F 53.6 °F 64% 30.21 in - NE 10.4 mph - N/A   Clear
6:50 AM 64.4 °F 53.6 °F 68% 30.21 in - NE 9.2 mph - N/A   Clear
7:20 AM 64.4 °F 53.6 °F 68% 30.21 in - NE 8.1 mph - N/A   Clear
7:50 AM 66.2 °F 53.6 °F 64% 30.21 in 6.2 mi NE 9.2 mph - N/A   Partly Cloudy
8:20 AM 66.2 °F 53.6 °F 64% 30.21 in 6.2 mi ENE 10.4 mph - N/A   Partly Cloudy
8:50 AM 68.0 °F 53.6 °F 60% 30.21 in - Variable 10.4 mph - N/A   Clear
9:00 AM 69 °F 53 °F 46% 30.24 in 6 mi NE 10.4 mph - -  
9:20 AM 68.0 °F 51.8 °F 56% 30.24 in - NE 13.8 mph - N/A   Clear
9:50 AM 68.0 °F 51.8 °F 56% 30.24 in 6.2 mi ENE 16.1 mph - N/A   Partly Cloudy
10:20 AM 69.8 °F 51.8 °F 53% 30.24 in 6.2 mi NE 17.3 mph - N/A   Partly Cloudy
10:50 AM 69.8 °F 51.8 °F 53% 30.24 in 6.2 mi NE 11.5 mph - N/A   Partly Cloudy
11:20 AM 71.6 °F 50.0 °F 46% 30.21 in - NE 11.5 mph - N/A   Clear
11:50 AM 71.6 °F 50.0 °F 46% 30.21 in - ENE 13.8 mph - N/A   Clear
12:20 PM 71.6 °F 50.0 °F 46% 30.21 in - NE 15.0 mph - N/A   Clear
12:50 PM 71.6 °F 50.0 °F 46% 30.21 in - NE 13.8 mph - N/A   Clear
1:20 PM 73.4 °F 50.0 °F 44% 30.18 in - NE 12.7 mph - N/A   Clear
1:50 PM 75.2 °F 48.2 °F 38% 30.18 in - NNE 10.4 mph - N/A   Clear
2:20 PM 73.4 °F 46.4 °F 38% 30.18 in - NE 15.0 mph - N/A   Clear
2:50 PM 73.4 °F 46.4 °F 38% 30.18 in - North 16.1 mph - N/A   Clear
3:00 PM 73 °F 47 °F 28% 30.19 in 6 mi North 16.1 mph - -  
3:20 PM 71.6 °F 46.4 °F 41% 30.18 in - NNE 15.0 mph - N/A   Clear
3:50 PM 73.4 °F 48.2 °F 41% 30.18 in - Variable 12.7 mph - N/A   Clear
4:20 PM 71.6 °F 50.0 °F 46% 30.15 in - NNE 13.8 mph - N/A   Clear
4:50 PM 71.6 °F 50.0 °F 46% 30.15 in - NNE 11.5 mph - N/A   Clear
5:20 PM 68.0 °F 50.0 °F 52% 30.15 in - NNE 13.8 mph - N/A   Clear
5:50 PM 66.2 °F 50.0 °F 56% 30.15 in - NNE 13.8 mph - N/A   Clear
6:20 PM 66.2 °F 50.0 °F 56% 30.15 in - NE 12.7 mph - N/A   Clear
6:50 PM 66.2 °F 51.8 °F 60% 30.15 in - NE 12.7 mph - N/A   Clear
7:20 PM 66.2 °F 51.8 °F 60% 30.15 in - NE 11.5 mph - N/A   Clear
7:50 PM 66.2 °F 51.8 °F 60% 30.15 in - NE 10.4 mph - N/A   Clear
8:20 PM 64.4 °F 51.8 °F 64% 30.15 in - NNE 9.2 mph - N/A   Clear
8:50 PM 68.0 °F 51.8 °F 56% 30.15 in - Variable 8.1 mph - N/A   Clear
9:00 PM 67 °F 51 °F 47% 30.17 in 6 mi ENE 8.1 mph - -  
9:20 PM 66.2 °F 51.8 °F 60% 30.15 in - NE 6.9 mph - N/A   Clear
9:50 PM 64.4 °F 51.8 °F 64% 30.15 in - Variable 6.9 mph - N/A   Clear
10:20 PM 64.4 °F 51.8 °F 64% 30.15 in - NE 8.1 mph - N/A   Clear
10:50 PM 64.4 °F 51.8 °F 64% 30.15 in - ENE 5.8 mph - N/A   Clear
11:20 PM 62.6 °F 50.0 °F 63% 30.15 in - NE 8.1 mph - N/A   Clear
11:50 PM 62.6 °F 50.0 °F 63% 30.15 in - NE 8.1 mph - N/A   Clear